Weather History for Entrance, BC

Change the Weather History Date:

Sunday, December 29, 2013

  Actual Average Record
Temperature  
Mean Temperature 42 °F -  
Max Temperature 44 °F - - ()
Min Temperature 40 °F - - ()
Degree Days  
Heating Degree Days 23    
Moisture  
Dew Point 39 °F    
Average Humidity 87    
Maximum Humidity 92    
Minimum Humidity 79    
Precipitation  
Precipitation 0.02 in - - ()
Sea Level Pressure  
Sea Level Pressure 30.38 in    
Wind  
Wind Speed 8 mph ()    
Max Wind Speed 16 mph    
Max Gust Speed -    
T = Trace of Precipitation, MM = Missing Value Source: Averaged Metar Reports

Daily Weather History Graph

Daily Weather History Graph

Search for Another Location

Airport:

Trip Planner

Search our weather history database for the weather conditions in past years. The results will help you decide how hot, cold, wet, or windy it might be!

Date:

Astronomy

Dec. 29, 2013 Rise Set
Actual Time 8:10 AM PST 4:25 PM PST
Civil Twilight 7:32 AM PST 5:02 PM PST
Nautical Twilight 6:51 AM PST 5:43 PM PST
Astronomical Twilight 6:13 AM PST 6:21 PM PST
Moon 4:52 AM PST (12/29) 2:14 PM PST (12/29)
Length of Visible Light 9h 29m
Length of Day
8h 14m
Waning Crescent, 10% of the Moon is Illuminated
Dec 29
Waning Crescent
Jan 1
New
Jan 7
First Quarter
Jan 15
Full
Jan 23
Last Quarter

Hourly Weather History & Observations

Time (PST) Temp. Windchill Dew Point Humidity Pressure Visibility Wind Dir Wind Speed Gust Speed Precip Events Conditions
12:00 AM 41.4 °F 38.4 °F 37.4 °F 86% 30.48 in - West 4.6 mph - N/A   Unknown
1:00 AM 41.9 °F - 37.8 °F 85% 30.45 in - SW 2.3 mph - N/A   Unknown
2:00 AM 41.7 °F 39.8 °F 36.7 °F 82% 30.44 in - South 3.5 mph - N/A   Unknown
3:00 AM 41.7 °F 39.8 °F 36.9 °F 83% 30.43 in - SSE 3.5 mph - N/A   Unknown
4:00 AM 42 °F - 38 °F 79% 30.41 in - SSE 5.8 mph - -  
4:00 AM 42.4 °F 38.8 °F 37.6 °F 83% 30.41 in - SSE 5.8 mph - N/A   Unknown
5:00 AM 42.1 °F 37.7 °F 38.5 °F 87% 30.40 in - SE 6.9 mph - N/A   Unknown
6:00 AM 42.1 °F 38.4 °F 38.8 °F 88% 30.39 in - SSE 5.8 mph - N/A   Unknown
7:00 AM 42.8 °F 36.2 °F 39.4 °F 88% 30.38 in - East 12.7 mph - 0.02 in   Unknown
8:00 AM 42.4 °F 35.7 °F 39.6 °F 90% 30.37 in - East 12.7 mph - N/A   Unknown
9:00 AM 42.6 °F 35.2 °F 39.9 °F 90% 30.38 in - East 15.0 mph - N/A   Unknown
10:00 AM 43 °F - 40 °F 86% 30.38 in - ESE 15.0 mph - -  
10:00 AM 42.8 °F 35.4 °F 40.3 °F 91% 30.38 in - ESE 15.0 mph - N/A   Unknown
11:00 AM 42.3 °F 39.4 °F 39.0 °F 88% 30.39 in - South 4.6 mph - N/A   Unknown
12:00 PM 42.8 °F 38.6 °F 38.8 °F 86% 30.37 in - SE 6.9 mph - N/A   Unknown
1:00 PM 43.5 °F 38.9 °F 39.6 °F 86% 30.36 in - ESE 8.1 mph - N/A   Unknown
2:00 PM 43.3 °F 37.2 °F 40.3 °F 89% 30.35 in - ESE 11.5 mph - N/A   Unknown
3:00 PM 43.0 °F 35.7 °F 40.5 °F 91% 30.35 in - East 15.0 mph - 0.01 in   Unknown
4:00 PM 43 °F - 40 °F 87% 30.35 in - ESE 16.1 mph - -  
4:00 PM 43.2 °F 35.6 °F 40.5 °F 90% 30.35 in - ESE 16.1 mph - N/A   Unknown
5:00 PM 43.3 °F 36.1 °F 40.6 °F 90% 30.34 in - SE 15.0 mph - N/A   Unknown
6:00 PM 43.3 °F 36.1 °F 40.3 °F 89% 30.34 in - ESE 15.0 mph - N/A   Unknown
7:00 PM 41.9 °F 34.3 °F 39.7 °F 92% 30.34 in - ESE 15.0 mph - N/A   Unknown
8:00 PM 43.9 °F 36.5 °F 38.3 °F 81% 30.34 in - ESE 16.1 mph - N/A   Unknown
9:00 PM 43.9 °F 37.2 °F 39.9 °F 86% 30.34 in - SE 13.8 mph - N/A   Unknown
10:00 PM 44 °F - 40 °F 83% 30.33 in - ESE 13.8 mph - -  
10:00 PM 43.5 °F 36.7 °F 40.5 °F 89% 30.33 in - ESE 13.8 mph - N/A   Unknown
11:00 PM 43.0 °F 36.0 °F 40.5 °F 91% 30.33 in - SE 13.8 mph - N/A   Unknown